TANUSHA-3 (43597 NORAD) Tracking and Keplerian Element Data

This shows tracking and keplerian element data for the satellite.

Feedback or suggestion? Click here.




ElementValue
Catalog43597
NameTANUSHA-3
Epoch Orbit4391
Epoch Day144.46497472
Epoch Year2019
RAAN110.037
Inclination51.6356
Eccentricity0.0004727
Argument of Perigee40.1819
Mean Anonmoly319.9524
Mean Motion15.61703216
Decay Rate0.00011669
L11 43597U 98067PJ 19144.46497472 .00011669 00000-0 13836-3 0 9997
L22 43597 51.6356 110.0370 0004727 40.1819 319.9524 15.61703216 43913

Live tracking and technical data element details for TANUSHA-3 (NORAD 43597). TANUSHA-3 can be tracked NOW for your location showing map with azimuth and elevation plus other details from your city location.

Track the satellite on the map from your city or location and see movement details for azimuth, elevation, latitude, longitude, range, height, and movement on the map or in text.







IsCatalogInMostPopularTable: catalog: 43597, numindb: 153
Update: records affected: 1



GetName: 43597 TANUSHA-3

Hit Count: updated at: Fri, 24 May 2019 20:54:51 GMT